Regional Weather Roundup
Issued by NWS

Home | Current Version | Previous Version | Text Only | Print | Product List | Glossary Off
Versions: 1 2 3 4 5 6 7 8 9 10 11 12 13 14 15 16 17 18 19 20 21 22 23 24 25 26 27 28 29 30 31 32 33 34 35 36 37 38 39 40 41 42 43 44 45 46 47 48 49 50

591
ASUS43 KOAX 230610
RWRNE

WEATHER ROUNDUP FOR NEBRASKA
NATIONAL WEATHER SERVICE OMAHA NE
1200 AM CST THU NOV 23 2017

NOTES: SATELLITE DATA IS BEING USED TO AUGMENT CLOUD COVER ABOVE
       12000 FEET.
       "FAIR" INDICATES FEW OR NO CLOUDS BELOW 12,000 FEET WITH NO
       SIGNIFICANT WEATHER AND/OR OBSTRUCTIONS TO VISIBILITY.


NEZ001>004-019>022-054>056-230700-
NEBRASKA PANHANDLE

CITY           SKY/WX    TMP DP  RH WIND       PRES   REMARKS
SCOTTSBLUFF    CLOUDY    40  35  83 NW6       30.18S
6HR MIN TEMP:  40; 6HR MAX TEMP:  60;

ALLIANCE       CLEAR     41  37  86 W12       30.16S
6HR MIN TEMP:  37; 6HR MAX TEMP:  51;

CHADRON        CLEAR     38  34  85 W3        30.12F
6HR MIN TEMP:  37; 6HR MAX TEMP:  58;

GORDON         FAIR      37  31  81 CALM      30.11F
6HR MIN TEMP:  37; 6HR MAX TEMP:  59;

KIMBALL        CLOUDY    48  39  71 NW13      30.22S
SIDNEY         CLOUDY    41  36  82 NW12      30.19S
6HR MIN TEMP:  41; 6HR MAX TEMP:  56;

$$

NEZ057>060-069>072-079>082-230700-
SOUTHWEST NEBRASKA

CITY           SKY/WX    TMP DP  RH WIND       PRES   REMARKS
NORTH PLATTE   CLEAR     34  31  88 N5        30.11R WCI  30
6HR MIN TEMP:  34; 6HR MAX TEMP:  51;

IMPERIAL       CLOUDY    47  39  74 NW12      30.13S
6HR MIN TEMP:  47; 6HR MAX TEMP:  58;

LEXINGTON      CLEAR     36  31  83 W6        30.09R WCI  31
MCCOOK         CLOUDY    43  36  76 W8        30.10S
6HR MIN TEMP:  40; 6HR MAX TEMP:  63;

OGALLALA       CLOUDY    51  40  67 NW18      30.12F
$$

NEZ005>010-023>029-035>040-094-230700-
NORTH CENTRAL NEBRASKA

CITY           SKY/WX    TMP DP  RH WIND       PRES   REMARKS
VALENTINE      CLEAR     43  36  76 W7        30.06S
6HR MIN TEMP:  40; 6HR MAX TEMP:  58;

AINSWORTH      CLEAR     43  37  78 W7        30.07R
BROKEN BOW     CLEAR     37  31  78 CALM      30.07R
6HR MIN TEMP:  36; 6HR MAX TEMP:  53;

O`NEILL        CLEAR     45  37  72 W6        30.02R
ORD            CLEAR     34  29  82 CALM      30.04R
6HR MIN TEMP:  33; 6HR MAX TEMP:  50;

THEDFORD       CLEAR     40  34  80 CALM      30.10S
$$

NEZ041-046>049-061>064-073>077-083>087-230700-
SOUTH CENTRAL NEBRASKA

CITY           SKY/WX    TMP DP  RH WIND       PRES   REMARKS
GRAND ISLAND   CLEAR     42  32  67 W9        30.04S
6HR MIN TEMP:  40; 6HR MAX TEMP:  47;

AURORA         CLEAR     38  26  62 SW8       30.02F WCI  32
HASTINGS       CLEAR     40  27  59 SW7       30.05S
6HR MIN TEMP:  39; 6HR MAX TEMP:  47;

HEBRON         CLEAR     42  23  46 W8        30.05S
HOLDREGE       CLEAR     44  34  68 W7        30.07S
KEARNEY        CLEAR     40  32  73 NW5       30.06S
YORK           CLEAR     37  25  60 W10       30.02F WCI  30
$$

NEZ011>018-030>034-042>045-230700-
NORTHEAST NEBRASKA

CITY           SKY/WX    TMP DP  RH WIND       PRES   REMARKS
NORFOLK        CLEAR     39  28  64 W5        29.98S
6HR MIN TEMP:  37; 6HR MAX TEMP:  46;

ALBION         CLEAR     41  32  70 NW6       30.01S
BLAIR          CLEAR     36  23  58 S8        29.99F WCI  29
COLUMBUS       CLEAR     40  26  57 W10       30.01F WCI  33
FREMONT        CLEAR     35  22  59 S3        30.00F
TEKAMAH        CLEAR     32  20  61 SE10      29.99F WCI  24
6HR MIN TEMP:  29; 6HR MAX TEMP:  36;

WAYNE          CLEAR     37  25  62 SW5       29.97S WCI  33
$$

NEZ050>053-065>068-078-088>093-230700-
SOUTHEAST NEBRASKA

CITY           SKY/WX    TMP DP  RH WIND       PRES   REMARKS
LINCOLN        CLEAR     36  22  56 S5        30.04S WCI  32
6HR MIN TEMP:  36; 6HR MAX TEMP:  43;

OMAHA EPPLEY   CLEAR     32  20  61 SE10      30.02F WCI  24
6HR MIN TEMP:  32; 6HR MAX TEMP:  39;

BEATRICE       CLEAR     39  22  52 SW7       30.04F WCI  34
FALLS CITY     CLOUDY    35  20  54 S3        30.07S
6HR MIN TEMP:  32; 6HR MAX TEMP:  38;

NEBRASKA CITY  CLEAR     32  22  67 S7        30.03F WCI  26
PLATTSMOUTH    CLEAR     34  21  60 S6        30.03S WCI  28
$$

NEZ044-045-051>053-067-230700-
OMAHA AREA

CITY           SKY/WX    TMP DP  RH WIND       PRES   REMARKS
OMAHA EPPLEY   CLEAR     32  20  61 SE10      30.02F WCI  24
6HR MIN TEMP:  32; 6HR MAX TEMP:  39;

BLAIR          CLEAR     36  23  58 S8        29.99F WCI  29
FREMONT        CLEAR     35  22  59 S3        30.00F
MILLARD        CLEAR     34  22  61 E3        30.02F
OFFUTT AFB     CLEAR     29  20  70 SE5       30.02F WCI  24
PLATTSMOUTH    CLEAR     34  21  60 S6        30.03S WCI  28
WAHOO          FAIR      37  21  53 SW5       30.00F WCI  33
$$




USA.gov is the U.S. government's official web portal to all federal, state and local government web resources and services.